Location: Albany
(35.0000°S, 118.0000°E)
Time: 15:21:16
(UTC-04:00)

ISS - All Passes

Search period start: 05 July 2015 00:00
Search period end: 15 July 2015 00:00
Orbit: 398 x 403 km, 51.6° (Epoch: 05 July)

Date Brightness Start Highest point End Pass type
(mag) Time Alt. Az. Time Alt. Az. Time Alt. Az.
05 Jul - 06:08:26 10° N 06:11:04 23° NE 06:13:46 10° ESE visible
05 Jul - 07:44:28 10° W 07:47:23 28° SW 07:50:19 10° SSE visible
05 Jul - 12:39:22 10° S 12:40:27 11° SSE 12:41:38 10° SE night (unlit)
05 Jul - 14:14:04 10° SW 14:17:24 73° SE 14:20:41 10° NE night (unlit)
06 Jul - 05:16:59 10° NE 05:17:42 11° NE 05:18:34 10° ENE daylight
06 Jul - 06:50:31 10° WNW 06:53:46 57° SW 06:57:03 10° SE visible
06 Jul - 13:20:44 10° SSW 13:23:48 34° SE 13:26:53 10° ENE night (unlit)
06 Jul - 14:57:38 10° W 15:00:03 18° NW 15:02:23 10° N night (unlit)
07 Jul - 05:57:00 10° NW 06:00:15 62° NE 06:03:31 10° SE visible
07 Jul - 07:34:51 10° WSW 07:36:57 15° SSW 07:38:59 10° S visible
07 Jul - 12:27:36 10° SSW 12:30:05 19° SSE 12:32:37 10° E night (unlit)
07 Jul - 14:03:29 10° WSW 14:06:38 40° NW 14:09:43 10° NNE night (unlit)
08 Jul - 05:03:59 10° N 05:06:47 27° NE 05:09:39 10° ESE daylight
08 Jul - 06:40:21 10° W 06:43:10 25° SSW 06:45:59 10° SSE visible
08 Jul - 11:34:48 10° S 11:36:15 12° SSE 11:37:47 10° SE night (unlit)
08 Jul - 13:09:48 10° SW 13:13:08 86° SE 13:16:26 10° NE night (unlit)
09 Jul - 04:11:55 10° NNE 04:13:22 13° NE 04:14:57 10° E daylight
09 Jul - 05:46:17 10° WNW 05:49:28 48° SW 05:52:42 10° SE visible
09 Jul - 12:16:22 10° SSW 12:19:31 39° SE 12:22:39 10° ENE night (unlit)
09 Jul - 13:53:34 10° W 13:55:42 16° NW 13:57:44 10° NNW night (unlit)
10 Jul - 04:52:37 10° NW 04:55:53 75° NE 04:59:12 10° SE daylight
10 Jul - 06:30:48 10° WSW 06:32:39 14° SSW 06:34:28 10° S visible
10 Jul - 11:23:08 10° SSW 11:25:47 22° SSE 11:28:27 10° E night (unlit)
10 Jul - 12:59:12 10° WSW 13:02:15 34° NW 13:05:15 10° NNE night (unlit)
11 Jul - 03:59:26 10° NNW 04:02:22 31° NE 04:05:22 10° ESE daylight
11 Jul - 05:36:08 10° W 05:38:49 22° SSW 05:41:30 10° SSE visible
11 Jul - 10:30:12 10° S 10:31:56 13° SSE 10:33:43 10° ESE night (unlit)
11 Jul - 12:05:24 10° SW 12:08:43 80° NW 12:12:01 10° NE night (unlit)
12 Jul - 03:07:02 10° NNE 03:08:54 15° NE 03:10:54 10° E daylight
12 Jul - 04:41:56 10° WNW 04:45:03 41° SW 04:48:14 10° SE daylight
12 Jul - 11:11:53 10° SW 11:15:06 45° SE 11:18:17 10° ENE night (unlit)
12 Jul - 12:49:27 10° W 12:51:13 13° NW 12:52:52 10° NNW night (unlit)
13 Jul - 03:48:08 10° NW 03:51:24 89° NE 03:54:44 10° SE daylight
13 Jul - 05:26:39 10° SW 05:28:15 13° SSW 05:29:47 10° S daylight
13 Jul - 10:18:34 10° SSW 10:21:20 24° SSE 10:24:07 10° E night (unlit)
13 Jul - 11:54:49 10° WSW 11:57:44 29° NW 12:00:37 10° NNE night (unlit)
14 Jul - 02:54:47 10° NNW 02:57:50 37° NE 03:00:56 10° ESE daylight
14 Jul - 04:31:47 10° W 04:34:20 20° SSW 04:36:52 10° SSE daylight
14 Jul - 09:25:30 10° S 09:27:27 15° SSE 09:29:28 10° ESE night (unlit)
14 Jul - 11:00:53 10° SW 11:04:11 67° NW 11:07:27 10° NE night (unlit)
